Tampa Macdill AFB, FL

9:35 AM EDT on October 21, 2019 (GMT -0400)
MacDill Air Force Base

Weather History for KMCF - August, 2019

Change the Weather History Date:

Tuesday, August 6, 2019

  Actual Average Record
Temperature  
Mean Temperature 83 °F -  
Max Temperature 90 °F 87 °F 95 °F (2000)
Min Temperature 76 °F 73 °F 73 °F (1996)
Cooling Degree Days 18    
Growing Degree Days 33 (Base 50)    
Moisture  
Dew Point 75 °F    
Average Humidity 76    
Maximum Humidity 89    
Minimum Humidity 58    
Precipitation  
Precipitation 0.44 in - - ()
Sea Level Pressure  
Sea Level Pressure 30.00 in    
Wind  
Wind Speed 5 mph (SW)    
Max Wind Speed 15 mph    
Max Gust Speed -    
Visibility 9 miles    
Events Rain , Thunderstorm    
Averages and records for this station are not official NWS values.
T = Trace of Precipitation, MM = Missing Value Source: NWS Daily Summary

Daily Weather History Graph

Daily Weather History Graph

Search for Another Location

Airport or City:

Astronomy

Aug. 06, 2019 Rise Set
Actual Time 6:55 AM EDT 8:16 PM EDT
Civil Twilight 6:30 AM EDT 8:41 PM EDT
Nautical Twilight 6:00 AM EDT 9:10 PM EDT
Astronomical Twilight 5:29 AM EDT 9:41 PM EDT
Moon 12:47 PM EDT (8/6) No Moon Set
Length of Visible Light 14h 10m
Length of Day
13h 20m
Waxing Crescent, 38% of the Moon is Illuminated
Aug 6
Waxing Crescent
Aug 7
First Quarter
Aug 15
Full
Aug 23
Last Quarter
Aug 30
New

Hourly Weather History & Observations

Time (EDT) Temp. Heat Index Dew Point Humidity Pressure Visibility Wind Dir Wind Speed Gust Speed Precip Events Conditions
12:56 AM 80.6 °F 86.2 °F 75.2 °F 84% 30.02 in 10.0 mi South 4.6 mph - N/A   Clear
1:56 AM 80.8 °F 87.1 °F 76.1 °F 86% 30.00 in 10.0 mi SSW 4.6 mph - N/A   Partly Cloudy
2:56 AM 81.5 °F 88.5 °F 76.1 °F 84% 29.99 in 10.0 mi SW 3.5 mph - N/A   Clear
3:56 AM 82.0 °F 88.6 °F 74.8 °F 79% 29.99 in 10.0 mi SSE 3.5 mph - N/A   Partly Cloudy
4:56 AM 80.2 °F 86.1 °F 76.6 °F 89% 29.99 in 10.0 mi SSE 4.6 mph - N/A   Partly Cloudy
5:25 AM 80.6 °F 87.1 °F 77.0 °F 89% 29.99 in 10.0 mi Calm Calm - N/A Rain Light Rain
5:42 AM 80.6 °F 87.1 °F 77.0 °F 89% 29.99 in 8.0 mi Calm Calm - N/A   Scattered Clouds
5:56 AM 80.1 °F 85.4 °F 75.7 °F 87% 29.99 in 10.0 mi Calm Calm - 0.03 in   Scattered Clouds
6:30 AM 78.8 °F - 75.2 °F 89% 30.01 in 10.0 mi West 4.6 mph - N/A Thunderstorm Thunderstorm
6:36 AM 78.8 °F - 75.2 °F 89% 30.01 in 10.0 mi West 3.5 mph - N/A Rain , Thunderstorm Light Thunderstorms and Rain
6:42 AM 78.8 °F - 73.4 °F 83% 30.02 in 10.0 mi WSW 8.1 mph - N/A Rain , Thunderstorm Heavy Thunderstorms and Rain
6:52 AM 77.0 °F - 73.4 °F 89% 30.02 in 1.1 mi SSW 9.2 mph - N/A Rain , Thunderstorm Heavy Thunderstorms and Rain
6:56 AM 76.6 °F - 73.0 °F 89% 30.02 in 0.9 mi SSW 10.4 mph - 0.40 in Rain , Thunderstorm Light Thunderstorms and Rain
7:01 AM 77.0 °F - 73.4 °F 89% 30.01 in 5.0 mi South 9.2 mph - N/A Rain , Thunderstorm Light Thunderstorms and Rain
7:04 AM 77.0 °F - 73.4 °F 89% 30.00 in 7.0 mi South 5.8 mph - N/A Thunderstorm Thunderstorm
7:22 AM 77.0 °F - 73.4 °F 89% 30.00 in 10.0 mi South 6.9 mph - N/A   Partly Cloudy
7:56 AM 77.9 °F - 73.0 °F 85% 30.02 in 10.0 mi South 6.9 mph - 0.01 in   Clear
9:56 AM 84.2 °F 92.6 °F 75.4 °F 75% 30.02 in 10.0 mi SSW 4.6 mph - N/A   Partly Cloudy
10:56 AM 86.9 °F 97.3 °F 75.9 °F 70% 30.02 in 10.0 mi West 3.5 mph - N/A   Partly Cloudy
11:05 AM 86.0 °F 96.9 °F 77.0 °F 74% 30.02 in 10.0 mi West 4.6 mph - N/A   Light Drizzle
11:13 AM 86.0 °F 96.9 °F 77.0 °F 74% 30.02 in 10.0 mi SSW 4.6 mph - N/A   Scattered Clouds
11:28 AM 86.0 °F 96.9 °F 77.0 °F 74% 30.02 in 10.0 mi South 6.9 mph - N/A Thunderstorm Mostly Cloudy
11:38 AM 86.0 °F 96.9 °F 77.0 °F 74% 30.02 in 10.0 mi South 5.8 mph - N/A Thunderstorm Scattered Clouds
11:48 AM 87.8 °F 97.6 °F 75.2 °F 66% 30.02 in 10.0 mi SW 4.6 mph - N/A   Mostly Cloudy
11:56 AM 88.7 °F 98.2 °F 74.5 °F 63% 30.02 in 10.0 mi WSW 6.9 mph - 0.00 in   Mostly Cloudy
12:01 PM 89.6 °F 99.8 °F 75.2 °F 62% 30.03 in 10.0 mi WNW 4.6 mph - N/A   Mostly Cloudy
12:56 PM 87.6 °F 95.7 °F 73.8 °F 63% 30.01 in 10.0 mi WNW 4.6 mph - N/A   Mostly Cloudy
1:39 PM 89.6 °F 102.2 °F 77.0 °F 66% 30.00 in 10.0 mi West 10.4 mph - N/A Rain Light Rain
1:53 PM 86.0 °F 95.1 °F 75.2 °F 70% 29.99 in 10.0 mi SW 6.9 mph - N/A Thunderstorm Mostly Cloudy
1:56 PM 86.7 °F 95.9 °F 74.8 °F 68% 29.99 in 10.0 mi SW 6.9 mph - 0.00 in Thunderstorm Mostly Cloudy
2:56 PM 90.5 °F 101.5 °F 75.6 °F 61% 29.98 in 10.0 mi NW 6.9 mph - N/A   Mostly Cloudy
3:56 PM 90.3 °F 99.3 °F 73.9 °F 58% 29.97 in 10.0 mi WNW 10.4 mph - N/A   Partly Cloudy
4:40 PM 87.8 °F 95.6 °F 73.4 °F 62% 29.96 in 10.0 mi WNW 9.2 mph - N/A   Light Drizzle
4:50 PM 87.8 °F 97.6 °F 75.2 °F 66% 29.96 in 10.0 mi NW 4.6 mph - N/A   Partly Cloudy
4:56 PM 88.5 °F 97.8 °F 74.3 °F 63% 29.96 in 10.0 mi WNW 8.1 mph - 0.00 in   Clear
5:56 PM 87.8 °F 96.6 °F 74.5 °F 64% 29.97 in 10.0 mi West 4.6 mph - N/A   Partly Cloudy
6:56 PM 86.2 °F 93.4 °F 73.0 °F 65% 29.98 in 10.0 mi WNW 4.6 mph - N/A   Clear
7:56 PM 85.6 °F 93.0 °F 73.8 °F 67% 29.99 in 10.0 mi WNW 3.5 mph - N/A   Clear
8:33 PM 82.4 °F 88.2 °F 73.4 °F 74% 29.99 in 10.0 mi ESE 6.9 mph - N/A   Light Drizzle
8:43 PM 82.4 °F 89.5 °F 75.2 °F 79% 29.99 in 10.0 mi ESE 9.2 mph - N/A Thunderstorm Unknown
8:49 PM 82.4 °F 89.5 °F 75.2 °F 79% 30.00 in 10.0 mi ESE 10.4 mph - N/A Thunderstorm Thunderstorm
8:56 PM 82.2 °F 88.0 °F 73.8 °F 75% 29.99 in 10.0 mi SE 13.8 mph - 0.00 in Thunderstorm Thunderstorm
8:58 PM 82.4 °F 88.2 °F 73.4 °F 74% 30.00 in 10.0 mi SE 15.0 mph - N/A Thunderstorm Overcast
9:03 PM 82.4 °F 88.2 °F 73.4 °F 74% 30.00 in 10.0 mi SSE 11.5 mph - N/A Thunderstorm Overcast
9:33 PM 80.6 °F 85.4 °F 73.4 °F 79% 30.01 in 10.0 mi SSE 6.9 mph - N/A   Mostly Cloudy
9:56 PM 79.9 °F - 72.3 °F 78% 30.00 in 10.0 mi SSE 9.2 mph - N/A   Clear
10:56 PM 81.1 °F 86.8 °F 74.3 °F 80% 30.00 in 10.0 mi SSE 4.6 mph - N/A   Clear
11:56 PM 81.1 °F 86.8 °F 74.3 °F 80% 30.00 in 10.0 mi South 3.5 mph - N/A   Clear